レモン彗星

C/2007 K1 ( Lemmon )

English version
Home page
Total 6,336 html files since Dec. 4, 1995
Updated on June 14, 2008

---------------------------------------------------------------------

・ プロフィール

発見日 2007年5月18日
発見光度 20.4等
発見者 Mt. Lemmon Survey

・ 軌道要素

The following orbital elements are taken from MPC 60664:

Epoch 2007 May 20.0 TT = JDT 2454240.5
T 2007 May 8.8773 TT                                    MPC
q   9.238788             (2000.0)            P               Q
z  +0.002382       Peri.   52.0305      +0.0301618      -0.5056651
 +/-0.000020       Node   294.6574      -0.9059025      +0.3507062
e   0.977995       Incl.  108.4306      +0.4224109      +0.7882309
From 121 observations 2007 May 18-Sept. 16, mean residual 0".5.

・ 光度変化

        m1 = 5.5 + 5 logΔ + 10.0 log r

---------------------------------------------------------------------

軌道要素はMPCのEphemerides and Orbital Elementsに掲載されたものです。
光度グラフはComet for Windowsで作成したものです。

---------------------------------------------------------------------

Copyright(C) 1995-2008 Seiichi Yoshida (comet@aerith.net). All rights reserved.